,,Stat6,,Stat2,,Stat8,,Stat9,,Stat10,,Wind1,,Wind1,
time,status,PA1M_AVG,status,PR1M_SUM,status,RH1M_AVG,status,SR1M_AVG,status,TA1M_AVG,status,W1dAve1m,status,W1sAve1m,
2006-01-27, 00:00:00,VALID,919.602,VALID,0,VALID,93.1361,VALID,0.169808,VALID,17.8939,VALID,112,VALID,1.16279,
2006-01-27, 00:01:00,VALID,919.584,VALID,0,VALID,93.435,VALID,0.186789,VALID,17.8685,VALID,112,VALID,1.25946,
2006-01-27, 00:02:00,VALID,919.57,VALID,0,VALID,93.5876,VALID,0.20377,VALID,17.8458,VALID,116,VALID,1.32706,
2006-01-27, 00:03:00,VALID,919.554,VALID,0,VALID,93.6638,VALID,0.169808,VALID,17.8355,VALID,118,VALID,1.2706,
2006-01-27, 00:04:00,VALID,919.532,VALID,0,VALID,93.7694,VALID,0.186789,VALID,17.826,VALID,120,VALID,1.22202,
2006-01-27, 00:05:00,VALID,919.519,VALID,0,VALID,94.0479,VALID,0.152827,VALID,17.8066,VALID,113,VALID,1.26995,
2006-01-27, 00:06:00,VALID,919.504,VALID,0,VALID,94.1725,VALID,0.101885,VALID,17.8008,VALID,106,VALID,1.15425,
2006-01-27, 00:07:00,VALID,919.489,VALID,0,VALID,94.2882,VALID,0.101885,VALID,17.7789,VALID,109,VALID,1.22638,
2006-01-27, 00:08:00,VALID,919.47,VALID,0,VALID,94.3823,VALID,0.101885,VALID,17.7662,VALID,107,VALID,1.31287,
2006-01-27, 00:09:00,VALID,919.461,VALID,0,VALID,94.4484,VALID,0.0849042,VALID,17.7466,VALID,106,VALID,1.23419,
2006-01-27, 00:10:00,VALID,919.437,VALID,0,VALID,94.5044,VALID,0.0679233,VALID,17.747,VALID,103,VALID,1.09766,
2006-01-27, 00:11:00,VALID,919.426,VALID,0,VALID,94.5374,VALID,0.0849042,VALID,17.7274,VALID,99,VALID,1.22727,
2006-01-27, 00:12:00,VALID,919.402,VALID,0,VALID,94.5641,VALID,0.0679233,VALID,17.7306,VALID,101,VALID,1.41779,
2006-01-27, 00:13:00,VALID,919.386,VALID,0,VALID,94.5298,VALID,0.0679233,VALID,17.7209,VALID,107,VALID,1.26734,
2006-01-27, 00:14:00,VALID,919.366,VALID,0,VALID,94.4039,VALID,0.0679233,VALID,17.7405,VALID,114,VALID,1.24423,
2006-01-27, 00:15:00,VALID,919.363,VALID,0,VALID,94.1776,VALID,0.0849042,VALID,17.7336,VALID,103,VALID,1.15607,
2006-01-27, 00:16:00,VALID,919.348,VALID,0,VALID,94.1394,VALID,0.101885,VALID,17.7018,VALID,92,VALID,1.23971,
2006-01-27, 00:17:00,VALID,919.345,VALID,0,VALID,94.1483,VALID,0.101885,VALID,17.6787,VALID,99,VALID,1.20224,
2006-01-27, 00:18:00,VALID,919.347,VALID,0,VALID,94.3505,VALID,0.101885,VALID,17.6432,VALID,97,VALID,1.09629,
2006-01-27, 00:19:00,VALID,919.346,VALID,0,VALID,94.5425,VALID,0.101885,VALID,17.6238,VALID,102,VALID,1.2024,
2006-01-27, 00:20:00,VALID,919.339,VALID,0,VALID,94.5819,VALID,0.101885,VALID,17.6076,VALID,107,VALID,1.0439,
2006-01-27, 00:21:00,VALID,919.339,VALID,0,VALID,94.76,VALID,0.0169808,VALID,17.5762,VALID,108,VALID,1.35328,
2006-01-27, 00:22:00,VALID,919.34,VALID,0,VALID,94.8057,VALID,0,VALID,17.5766,VALID,108,VALID,1.2603,
2006-01-27, 00:23:00,VALID,919.337,VALID,0,VALID,94.8248,VALID,0.0169808,VALID,17.5771,VALID,116,VALID,1.62972,
2006-01-27, 00:24:00,VALID,919.342,VALID,0,VALID,94.7282,VALID,0.0169808,VALID,17.5672,VALID,114,VALID,1.57722,
2006-01-27, 00:25:00,VALID,919.335,VALID,0,VALID,94.6862,VALID,-0.0339617,VALID,17.5741,VALID,107,VALID,1.38247,
2006-01-27, 00:26:00,VALID,919.318,VALID,0,VALID,94.7981,VALID,-0.0339617,VALID,17.5805,VALID,110,VALID,1.40681,
2006-01-27, 00:27:00,VALID,919.312,VALID,0,VALID,94.9901,VALID,-0.0509425,VALID,17.5803,VALID,114,VALID,1.61573,
2006-01-27, 00:28:00,VALID,919.304,VALID,0,VALID,94.9711,VALID,-0.0169808,VALID,17.5771,VALID,112,VALID,1.36594,
2006-01-27, 00:29:00,VALID,919.293,VALID,0,VALID,95.0601,VALID,-0.0169808,VALID,17.5801,VALID,119,VALID,1.3912,
2006-01-27, 00:30:00,VALID,919.269,VALID,0,VALID,95.205,VALID,-0.0339617,VALID,17.5773,VALID,124,VALID,1.38717,
2006-01-27, 00:31:00,VALID,919.251,VALID,0,VALID,95.3119,VALID,-0.0339617,VALID,17.5801,VALID,125,VALID,1.29918,
2006-01-27, 00:32:00,VALID,919.214,VALID,0,VALID,95.3792,VALID,-0.0339617,VALID,17.5734,VALID,124,VALID,1.08945,
2006-01-27, 00:33:00,VALID,919.195,VALID,0,VALID,95.397,VALID,-0.0169808,VALID,17.5605,VALID,128,VALID,1.05841,
2006-01-27, 00:34:00,VALID,919.185,VALID,0,VALID,95.4644,VALID,-0.0169808,VALID,17.5542,VALID,127,VALID,1.32865,
2006-01-27, 00:35:00,VALID,919.179,VALID,0,VALID,95.5331,VALID,0,VALID,17.5443,VALID,127,VALID,1.41722,
2006-01-27, 00:36:00,VALID,919.167,VALID,0,VALID,95.4606,VALID,0.0509425,VALID,17.5503,VALID,129,VALID,1.36097,
2006-01-27, 00:37:00,VALID,919.166,VALID,0,VALID,95.1376,VALID,0.0339617,VALID,17.5561,VALID,126,VALID,1.73013,
2006-01-27, 00:38:00,VALID,919.136,VALID,0,VALID,94.6303,VALID,0.0849042,VALID,17.5949,VALID,123,VALID,1.58285,
2006-01-27, 00:39:00,VALID,919.125,VALID,0,VALID,94.0097,VALID,0.0679233,VALID,17.6662,VALID,119,VALID,1.72545,
2006-01-27, 00:40:00,VALID,919.11,VALID,0,VALID,93.4286,VALID,0.0679233,VALID,17.7502,VALID,121,VALID,1.8038,
2006-01-27, 00:41:00,VALID,919.11,VALID,0,VALID,92.9772,VALID,0.118866,VALID,17.844,VALID,112,VALID,1.54615,
2006-01-27, 00:42:00,VALID,919.102,VALID,0,VALID,92.775,VALID,0.0509425,VALID,17.8894,VALID,107,VALID,1.34201,
2006-01-27, 00:43:00,VALID,919.099,VALID,0,VALID,92.7674,VALID,0.0849042,VALID,17.8987,VALID,116,VALID,1.47795,
2006-01-27, 00:44:00,VALID,919.1,VALID,0,VALID,92.7966,VALID,0.0679233,VALID,17.8987,VALID,117,VALID,1.83842,
2006-01-27, 00:45:00,VALID,919.086,VALID,0,VALID,92.9225,VALID,0.0849042,VALID,17.9079,VALID,115,VALID,1.75908,
2006-01-27, 00:46:00,VALID,919.071,VALID,0,VALID,93.0865,VALID,0.0679233,VALID,17.8855,VALID,115,VALID,1.75661,
2006-01-27, 00:47:00,VALID,919.068,VALID,0,VALID,93.2366,VALID,0.0849042,VALID,17.883,VALID,120,VALID,1.7923,
2006-01-27, 00:48:00,VALID,919.078,VALID,0,VALID,93.3485,VALID,0.101885,VALID,17.8437,VALID,125,VALID,2.07622,
2006-01-27, 00:49:00,VALID,919.071,VALID,0,VALID,93.3676,VALID,0.0679233,VALID,17.8146,VALID,124,VALID,1.94115,
2006-01-27, 00:50:00,VALID,919.071,VALID,0,VALID,93.4795,VALID,0.0509425,VALID,17.8278,VALID,123,VALID,1.90803,
2006-01-27, 00:51:00,VALID,919.076,VALID,0,VALID,93.5176,VALID,0.0509425,VALID,17.8177,VALID,123,VALID,1.67207,
2006-01-27, 00:52:00,VALID,919.066,VALID,0,VALID,93.6232,VALID,0.0849042,VALID,17.8149,VALID,125,VALID,1.52214,
2006-01-27, 00:53:00,VALID,919.064,VALID,0,VALID,93.7592,VALID,0.0339617,VALID,17.7791,VALID,127,VALID,1.55898,
2006-01-27, 00:54:00,VALID,919.069,VALID,0,VALID,93.9601,VALID,0.0849042,VALID,17.7528,VALID,125,VALID,1.44115,
2006-01-27, 00:55:00,VALID,919.065,VALID,0,VALID,93.8609,VALID,0.0679233,VALID,17.7212,VALID,123,VALID,1.52805,
2006-01-27, 00:56:00,VALID,919.071,VALID,0,VALID,93.7885,VALID,0.0849042,VALID,17.7082,VALID,125,VALID,0.947173,
2006-01-27, 00:57:00,VALID,919.065,VALID,0,VALID,93.8444,VALID,0.118866,VALID,17.6919,VALID,121,VALID,1.14008,
2006-01-27, 00:58:00,VALID,919.067,VALID,0,VALID,93.7745,VALID,0.118866,VALID,17.672,VALID,116,VALID,1.26124,
2006-01-27, 00:59:00,VALID,919.05,VALID,0,VALID,93.6931,VALID,0.0849042,VALID,17.6656,VALID,117,VALID,1.34604,
2006-01-27, 01:00:00,VALID,919.044,VALID,0,VALID,93.6893,VALID,0.0849042,VALID,17.6791,VALID,126,VALID,1.08785,
2006-01-27, 01:01:00,VALID,919.037,VALID,0,VALID,93.7312,VALID,0.0849042,VALID,17.6826,VALID,135,VALID,0.900298,
2006-01-27, 01:02:00,VALID,919.033,VALID,0,VALID,93.7554,VALID,0.0679233,VALID,17.6725,VALID,133,VALID,1.01653,
2006-01-27, 01:03:00,VALID,919.025,VALID,0,VALID,93.7681,VALID,0.0679233,VALID,17.6529,VALID,136,VALID,1.08213,
2006-01-27, 01:04:00,VALID,919.005,VALID,0,VALID,93.7262,VALID,0.0849042,VALID,17.6759,VALID,132,VALID,0.860937,
2006-01-27, 01:05:00,VALID,918.991,VALID,0,VALID,93.5545,VALID,0.0679233,VALID,17.6856,VALID,127,VALID,0.873094,
2006-01-27, 01:06:00,VALID,918.962,VALID,0,VALID,93.3892,VALID,0.0169808,VALID,17.6798,VALID,130,VALID,1.00906,
2006-01-27, 01:07:00,VALID,918.946,VALID,0,VALID,93.1527,VALID,-0.0509425,VALID,17.6996,VALID,131,VALID,0.923921,
2006-01-27, 01:08:00,VALID,918.923,VALID,0,VALID,92.9009,VALID,-0.0509425,VALID,17.7287,VALID,129,VALID,0.86684,
2006-01-27, 01:09:00,VALID,918.899,VALID,0,VALID,92.728,VALID,0,VALID,17.7546,VALID,129,VALID,0.913398,
2006-01-27, 01:10:00,VALID,918.876,VALID,0,VALID,92.6237,VALID,0,VALID,17.7934,VALID,130,VALID,0.883878,
2006-01-27, 01:11:00,VALID,918.86,VALID,0,VALID,92.494,VALID,0,VALID,17.8128,VALID,126,VALID,0.738281,
2006-01-27, 01:12:00,VALID,918.844,VALID,0,VALID,92.2117,VALID,-0.0339617,VALID,17.8289,VALID,131,VALID,0.973772,
2006-01-27, 01:13:00,VALID,918.827,VALID,0,VALID,92.0921,VALID,-0.0509425,VALID,17.8453,VALID,136,VALID,0.940168,
2006-01-27, 01:14:00,VALID,918.812,VALID,0,VALID,92.0171,VALID,-0.0509425,VALID,17.8481,VALID,136,VALID,0.896151,
2006-01-27, 01:15:00,VALID,918.799,VALID,0,VALID,92.082,VALID,0.0339617,VALID,17.8742,VALID,132,VALID,0.709847,
2006-01-27, 01:16:00,VALID,918.786,VALID,0,VALID,92.1812,VALID,-0.0339617,VALID,17.8839,VALID,120,VALID,0.967297,
2006-01-27, 01:17:00,VALID,918.779,VALID,0,VALID,92.204,VALID,-0.0339617,VALID,17.8744,VALID,114,VALID,1.02865,
2006-01-27, 01:18:00,VALID,918.78,VALID,0,VALID,92.3299,VALID,0,VALID,17.8645,VALID,109,VALID,0.802083,
2006-01-27, 01:19:00,VALID,918.764,VALID,0,VALID,92.0743,VALID,-0.0339617,VALID,17.8617,VALID,99,VALID,0.865885,
2006-01-27, 01:20:00,VALID,918.752,VALID,0,VALID,91.8861,VALID,0,VALID,17.8483,VALID,103,VALID,1.08557,
2006-01-27, 01:21:00,VALID,918.738,VALID,0,VALID,91.581,VALID,0.0509425,VALID,17.8606,VALID,103,VALID,1.26076,
2006-01-27, 01:22:00,VALID,918.719,VALID,0,VALID,90.9185,VALID,0.0679233,VALID,17.9019,VALID,104,VALID,1.34928,
2006-01-27, 01:23:00,VALID,918.699,VALID,0,VALID,90.8027,VALID,0.0849042,VALID,17.9693,VALID,114,VALID,1.42302,
2006-01-27, 01:24:00,VALID,918.688,VALID,0,VALID,90.5192,VALID,0.0849042,VALID,18.021,VALID,114,VALID,1.59561,
2006-01-27, 01:25:00,VALID,918.687,VALID,0,VALID,90.5268,VALID,0.0679233,VALID,18.0568,VALID,109,VALID,1.30977,
2006-01-27, 01:26:00,VALID,918.669,VALID,0,VALID,90.5586,VALID,0.0849042,VALID,18.0697,VALID,107,VALID,1.22674,
2006-01-27, 01:27:00,VALID,918.662,VALID,0,VALID,90.5904,VALID,0.0849042,VALID,18.0503,VALID,99,VALID,1.22149,
2006-01-27, 01:28:00,VALID,918.646,VALID,0,VALID,90.612,VALID,0.0509425,VALID,18.0284,VALID,96,VALID,1.38586,
2006-01-27, 01:29:00,VALID,918.639,VALID,0,VALID,90.8167,VALID,0.0679233,VALID,18.0116,VALID,100,VALID,1.21112,
2006-01-27, 01:30:00,VALID,918.615,VALID,0,VALID,91.0749,VALID,0.101885,VALID,17.979,VALID,106,VALID,1.28924,
2006-01-27, 01:31:00,VALID,918.594,VALID,0,VALID,91.4945,VALID,0.118866,VALID,17.9465,VALID,107,VALID,1.14371,
2006-01-27, 01:32:00,VALID,918.587,VALID,0,VALID,91.8722,VALID,0.0849042,VALID,17.9144,VALID,109,VALID,1.22638,
2006-01-27, 01:33:00,VALID,918.583,VALID,0,VALID,92.4011,VALID,0.0849042,VALID,17.8724,VALID,112,VALID,1.25591,
2006-01-27, 01:34:00,VALID,918.588,VALID,0,VALID,92.8589,VALID,0.101885,VALID,17.8338,VALID,118,VALID,1.12952,
2006-01-27, 01:35:00,VALID,918.585,VALID,0,VALID,93.2112,VALID,0.101885,VALID,17.7985,VALID,123,VALID,1.10975,
2006-01-27, 01:36:00,VALID,918.569,VALID,0,VALID,93.379,VALID,0.0679233,VALID,17.7664,VALID,127,VALID,1.141,
2006-01-27, 01:37:00,VALID,918.567,VALID,0,VALID,93.4057,VALID,0.118866,VALID,17.7267,VALID,125,VALID,0.804501,
2006-01-27, 01:38:00,VALID,918.568,VALID,0,VALID,93.3434,VALID,0.101885,VALID,17.7078,VALID,132,VALID,0.839844,
2006-01-27, 01:39:00,VALID,918.567,VALID,0,VALID,93.1908,VALID,0.101885,VALID,17.7276,VALID,130,VALID,0.853237,
2006-01-27, 01:40:00,VALID,918.553,VALID,0,VALID,93.0344,VALID,0.0509425,VALID,17.7306,VALID,130,VALID,1.01036,
2006-01-27, 01:41:00,VALID,918.543,VALID,0,VALID,92.9734,VALID,0.101885,VALID,17.7436,VALID,133,VALID,0.856771,
2006-01-27, 01:42:00,VALID,918.526,VALID,0,VALID,92.8882,VALID,0.0679233,VALID,17.7655,VALID,127,VALID,0.925037,
2006-01-27, 01:43:00,VALID,918.518,VALID,0,VALID,92.6593,VALID,0.0679233,VALID,17.7662,VALID,118,VALID,0.952734,
2006-01-27, 01:44:00,VALID,918.512,VALID,0,VALID,92.4749,VALID,0.101885,VALID,17.7754,VALID,121,VALID,0.933771,
2006-01-27, 01:45:00,VALID,918.506,VALID,0,VALID,92.1367,VALID,0.118866,VALID,17.7653,VALID,119,VALID,0.994234,
2006-01-27, 01:46:00,VALID,918.49,VALID,0,VALID,91.8238,VALID,0.0849042,VALID,17.7784,VALID,121,VALID,1.05759,
2006-01-27, 01:47:00,VALID,918.489,VALID,0,VALID,91.1028,VALID,0.0849042,VALID,17.7814,VALID,117,VALID,1.43255,
2006-01-27, 01:48:00,VALID,918.464,VALID,0,VALID,90.1377,VALID,0.0849042,VALID,17.8142,VALID,112,VALID,1.55323,
2006-01-27, 01:49:00,VALID,918.469,VALID,0,VALID,89.6901,VALID,0.0339617,VALID,17.8694,VALID,105,VALID,1.39595,
2006-01-27, 01:50:00,VALID,918.448,VALID,0,VALID,89.4192,VALID,0.101885,VALID,17.9278,VALID,107,VALID,1.27166,
2006-01-27, 01:51:00,VALID,918.443,VALID,0,VALID,89.4803,VALID,0.0169808,VALID,17.9866,VALID,101,VALID,1.01943,
2006-01-27, 01:52:00,VALID,918.431,VALID,0,VALID,89.4968,VALID,-0.0509425,VALID,17.9901,VALID,105,VALID,1.03711,
2006-01-27, 01:53:00,VALID,918.433,VALID,0,VALID,89.6507,VALID,0,VALID,18.0004,VALID,104,VALID,0.696221,
2006-01-27, 01:54:00,VALID,918.449,VALID,0,VALID,89.7689,VALID,-0.0169808,VALID,17.9677,VALID,107,VALID,0.696514,
2006-01-27, 01:55:00,VALID,918.461,VALID,0,VALID,90.0652,VALID,0,VALID,17.9386,VALID,100,VALID,0.725818,
2006-01-27, 01:56:00,VALID,918.457,VALID,0,VALID,90.2203,VALID,-0.0169808,VALID,17.897,VALID,107,VALID,1.08381,
2006-01-27, 01:57:00,VALID,918.447,VALID,0,VALID,90.5179,VALID,-0.0169808,VALID,17.8513,VALID,104,VALID,1.22181,
2006-01-27, 01:58:00,VALID,918.425,VALID,0,VALID,90.5853,VALID,0,VALID,17.8125,VALID,109,VALID,1.40955,
2006-01-27, 01:59:00,VALID,918.407,VALID,0,VALID,90.729,VALID,-0.0169808,VALID,17.8033,VALID,110,VALID,1.29148,
2006-01-27, 02:00:00,VALID,918.38,VALID,0,VALID,90.9897,VALID,-0.0509425,VALID,17.7869,VALID,102,VALID,1.28924,
2006-01-27, 02:01:00,VALID,918.362,VALID,0,VALID,91.1283,VALID,-0.0169808,VALID,17.7671,VALID,109,VALID,1.259,
2006-01-27, 02:02:00,VALID,918.364,VALID,0,VALID,91.394,VALID,0,VALID,17.7643,VALID,112,VALID,1.14826,
2006-01-27, 02:03:00,VALID,918.336,VALID,0,VALID,91.7475,VALID,0.0509425,VALID,17.7408,VALID,114,VALID,1.05487,
2006-01-27, 02:04:00,VALID,918.327,VALID,0,VALID,92.0387,VALID,0.0339617,VALID,17.7149,VALID,112,VALID,1.00381,
2006-01-27, 02:05:00,VALID,918.302,VALID,0,VALID,92.2371,VALID,0.0339617,VALID,17.6796,VALID,101,VALID,1.13778,
2006-01-27, 02:06:00,VALID,918.295,VALID,0,VALID,92.4889,VALID,0.0339617,VALID,17.6602,VALID,110,VALID,1.12269,
2006-01-27, 02:07:00,VALID,918.291,VALID,0,VALID,92.7979,VALID,0.0509425,VALID,17.6182,VALID,120,VALID,1.17129,
2006-01-27, 02:08:00,VALID,918.285,VALID,0,VALID,93.1069,VALID,0.0339617,VALID,17.6115,VALID,127,VALID,1.04524,
2006-01-27, 02:09:00,VALID,918.262,VALID,0,VALID,93.3281,VALID,0.0169808,VALID,17.5857,VALID,115,VALID,0.972155,
2006-01-27, 02:10:00,VALID,918.251,VALID,0,VALID,93.5024,VALID,0,VALID,17.5824,VALID,83,VALID,0.638542,
2006-01-27, 02:11:00,VALID,918.227,VALID,0,VALID,93.6842,VALID,0.0679233,VALID,17.5667,VALID,79,VALID,0.83939,
2006-01-27, 02:12:00,VALID,918.216,VALID,0,VALID,93.9563,VALID,0.0339617,VALID,17.518,VALID,76,VALID,0.879297,
2006-01-27, 02:13:00,VALID,918.204,VALID,0,VALID,94.2106,VALID,0.0169808,VALID,17.4926,VALID,73,VALID,0.66282,
2006-01-27, 02:14:00,VALID,918.217,VALID,0,VALID,94.451,VALID,0.0339617,VALID,17.4573,VALID,75,VALID,0.170632,
2006-01-27, 02:15:00,VALID,918.197,VALID,0,VALID,94.7028,VALID,0.0509425,VALID,17.4536,VALID,88,VALID,0.427591,
2006-01-27, 02:16:00,VALID,918.161,VALID,0,VALID,94.8414,VALID,0.0169808,VALID,17.4273,VALID,114,VALID,0.908794,
2006-01-27, 02:17:00,VALID,918.123,VALID,0,VALID,94.8693,VALID,0.0169808,VALID,17.4243,VALID,109,VALID,1.1707,
2006-01-27, 02:18:00,VALID,918.086,VALID,0,VALID,94.9469,VALID,0.0679233,VALID,17.4211,VALID,91,VALID,1.08537,
2006-01-27, 02:19:00,VALID,918.069,VALID,0,VALID,94.882,VALID,0.0169808,VALID,17.4181,VALID,93,VALID,1.27433,
2006-01-27, 02:20:00,VALID,918.063,VALID,0,VALID,94.6748,VALID,0.0169808,VALID,17.4213,VALID,104,VALID,1.11376,
2006-01-27, 02:21:00,VALID,918.059,VALID,0,VALID,94.5235,VALID,0.0849042,VALID,17.4366,VALID,115,VALID,1.11543,
2006-01-27, 02:22:00,VALID,918.05,VALID,0,VALID,94.2513,VALID,0.169808,VALID,17.4615,VALID,99,VALID,1.1141,
2006-01-27, 02:23:00,VALID,918.054,VALID,0,VALID,94.142,VALID,0.118866,VALID,17.4941,VALID,92,VALID,0.944196,
2006-01-27, 02:24:00,VALID,918.04,VALID,0,VALID,94.245,VALID,0.135847,VALID,17.5363,VALID,97,VALID,0.769804,
2006-01-27, 02:25:00,VALID,918.046,VALID,0,VALID,94.2539,VALID,0.169808,VALID,17.5395,VALID,120,VALID,1.30771,
2006-01-27, 02:26:00,VALID,918.04,VALID,0,VALID,94.2157,VALID,0.101885,VALID,17.5329,VALID,112,VALID,1.28437,
2006-01-27, 02:27:00,VALID,918.053,VALID,0,VALID,94.2602,VALID,0.152827,VALID,17.5395,VALID,96,VALID,0.966346,
2006-01-27, 02:28:00,VALID,918.044,VALID,0,VALID,94.3086,VALID,0.152827,VALID,17.5494,VALID,93,VALID,1.03216,
2006-01-27, 02:29:00,VALID,918.047,VALID,0,VALID,94.32,VALID,0.135847,VALID,17.5492,VALID,102,VALID,0.886991,
2006-01-27, 02:30:00,VALID,918.05,VALID,0,VALID,94.231,VALID,0.135847,VALID,17.5363,VALID,119,VALID,1.28787,
2006-01-27, 02:31:00,VALID,918.049,VALID,0,VALID,94.2946,VALID,0.118866,VALID,17.5389,VALID,132,VALID,0.96317,
2006-01-27, 02:32:00,VALID,918.058,VALID,0,VALID,94.4599,VALID,0.118866,VALID,17.5723,VALID,139,VALID,0.728871,
2006-01-27, 02:33:00,VALID,918.05,VALID,0,VALID,94.6824,VALID,0.118866,VALID,17.582,VALID,136,VALID,0.803757,
2006-01-27, 02:34:00,VALID,918.045,VALID,0,VALID,94.7867,VALID,0.135847,VALID,17.5783,VALID,121,VALID,1.04315,
2006-01-27, 02:35:00,VALID,918.044,VALID,0,VALID,94.484,VALID,0.152827,VALID,17.549,VALID,121,VALID,1.36471,
2006-01-27, 02:36:00,VALID,918.042,VALID,0,VALID,94.2551,VALID,0.0509425,VALID,17.5404,VALID,122,VALID,1.47051,
2006-01-27, 02:37:00,VALID,918.038,VALID,0,VALID,94.1165,VALID,0.0339617,VALID,17.5799,VALID,116,VALID,1.40086,
2006-01-27, 02:38:00,VALID,918.038,VALID,0,VALID,93.8584,VALID,0,VALID,17.615,VALID,105,VALID,1.20203,
2006-01-27, 02:39:00,VALID,918.025,VALID,0,VALID,93.4477,VALID,0.0339617,VALID,17.6343,VALID,107,VALID,1.3065,
2006-01-27, 02:40:00,VALID,918.01,VALID,0,VALID,93.1031,VALID,0.0679233,VALID,17.6699,VALID,109,VALID,1.32778,
2006-01-27, 02:41:00,VALID,918.007,VALID,0,VALID,93.1298,VALID,0.0169808,VALID,17.7091,VALID,113,VALID,1.45889,
2006-01-27, 02:42:00,VALID,918.008,VALID,0,VALID,93.365,VALID,0.0169808,VALID,17.722,VALID,122,VALID,1.26289,
2006-01-27, 02:43:00,VALID,917.986,VALID,0,VALID,93.2862,VALID,0.0509425,VALID,17.7218,VALID,128,VALID,1.2957,
2006-01-27, 02:44:00,VALID,917.981,VALID,0,VALID,92.5932,VALID,0.0169808,VALID,17.7186,VALID,122,VALID,1.52344,
2006-01-27, 02:45:00,VALID,917.965,VALID,0,VALID,92.4978,VALID,0.0339617,VALID,17.7348,VALID,124,VALID,1.41035,
2006-01-27, 02:46:00,VALID,917.95,VALID,0,VALID,92.5092,VALID,0.0509425,VALID,17.7608,VALID,129,VALID,1.07533,
2006-01-27, 02:47:00,VALID,917.937,VALID,0,VALID,92.4635,VALID,-0.0169808,VALID,17.7666,VALID,121,VALID,1.14955,
2006-01-27, 02:48:00,VALID,917.931,VALID,0,VALID,92.3388,VALID,0.0169808,VALID,17.78,VALID,121,VALID,1.17823,
2006-01-27, 02:49:00,VALID,917.924,VALID,0,VALID,92.2091,VALID,0.0339617,VALID,17.7666,VALID,120,VALID,1.33703,
2006-01-27, 02:50:00,VALID,917.903,VALID,0,VALID,92.1354,VALID,0.0169808,VALID,17.7832,VALID,124,VALID,1.5426,
2006-01-27, 02:51:00,VALID,917.898,VALID,0,VALID,91.9574,VALID,0.118866,VALID,17.7849,VALID,121,VALID,1.34575,
2006-01-27, 02:52:00,VALID,917.879,VALID,0,VALID,92.0197,VALID,0.118866,VALID,17.8041,VALID,125,VALID,1.27344,
2006-01-27, 02:53:00,VALID,917.855,VALID,0,VALID,91.8772,VALID,0.135847,VALID,17.8142,VALID,121,VALID,1.19112,
2006-01-27, 02:54:00,VALID,917.842,VALID,0,VALID,91.7971,VALID,0.135847,VALID,17.8174,VALID,119,VALID,1.3186,
2006-01-27, 02:55:00,VALID,917.824,VALID,0,VALID,91.7679,VALID,0.101885,VALID,17.8433,VALID,120,VALID,1.30578,
2006-01-27, 02:56:00,VALID,917.814,VALID,0,VALID,91.8277,VALID,0.118866,VALID,17.8567,VALID,115,VALID,1.09648,
2006-01-27, 02:57:00,VALID,917.783,VALID,0,VALID,91.8022,VALID,0.135847,VALID,17.8694,VALID,106,VALID,0.96548,
2006-01-27, 02:58:00,VALID,917.766,VALID,0,VALID,91.9485,VALID,0.152827,VALID,17.8754,VALID,96,VALID,0.728849,
2006-01-27, 02:59:00,VALID,917.756,VALID,0,VALID,91.9891,VALID,0.135847,VALID,17.8694,VALID,98,VALID,0.851902,
2006-01-27, 03:00:00,VALID,917.729,VALID,0,VALID,91.7831,VALID,0.118866,VALID,17.8461,VALID,103,VALID,1.1782,
2006-01-27, 03:01:00,VALID,917.721,VALID,0,VALID,91.8658,VALID,0.101885,VALID,17.853,VALID,99,VALID,1.37155,
2006-01-27, 03:02:00,VALID,917.715,VALID,0,VALID,92.0298,VALID,0.101885,VALID,17.8467,VALID,98,VALID,1.16188,
2006-01-27, 03:03:00,VALID,917.71,VALID,0,VALID,92.2422,VALID,0.0849042,VALID,17.8177,VALID,105,VALID,0.775484,
2006-01-27, 03:04:00,VALID,917.708,VALID,0,VALID,92.3706,VALID,0.0849042,VALID,17.8013,VALID,105,VALID,0.795387,
2006-01-27, 03:05:00,VALID,917.7,VALID,0,VALID,92.4863,VALID,0.118866,VALID,17.7953,VALID,110,VALID,0.751065,
2006-01-27, 03:06:00,VALID,917.697,VALID,0,VALID,92.3617,VALID,0.135847,VALID,17.7754,VALID,113,VALID,0.848675,
2006-01-27, 03:07:00,VALID,917.689,VALID,0,VALID,92.2727,VALID,0.101885,VALID,17.7696,VALID,108,VALID,0.94186,
2006-01-27, 03:08:00,VALID,917.677,VALID,0,VALID,92.1214,VALID,0.101885,VALID,17.7953,VALID,105,VALID,0.922783,
2006-01-27, 03:09:00,VALID,917.663,VALID,0,VALID,92.0349,VALID,0.101885,VALID,17.7918,VALID,107,VALID,1.02083,
2006-01-27, 03:10:00,VALID,917.663,VALID,0,VALID,91.6306,VALID,0.0849042,VALID,17.7916,VALID,108,VALID,0.956055,
2006-01-27, 03:11:00,VALID,917.643,VALID,0,VALID,91.6293,VALID,0.118866,VALID,17.8209,VALID,102,VALID,0.859197,
2006-01-27, 03:12:00,VALID,917.63,VALID,0,VALID,91.5479,VALID,0.0849042,VALID,17.8368,VALID,85,VALID,0.743608,
2006-01-27, 03:13:00,VALID,917.612,VALID,0,VALID,91.1423,VALID,0.0849042,VALID,17.8629,VALID,93,VALID,0.908854,
2006-01-27, 03:14:00,VALID,917.596,VALID,0,VALID,90.2331,VALID,0.118866,VALID,17.8756,VALID,99,VALID,1.12277,
2006-01-27, 03:15:00,VALID,917.589,VALID,0,VALID,89.5617,VALID,0.101885,VALID,17.9278,VALID,99,VALID,1.35655,
2006-01-27, 03:16:00,VALID,917.576,VALID,0,VALID,88.8521,VALID,0.101885,VALID,17.9855,VALID,97,VALID,1.34826,
2006-01-27, 03:17:00,VALID,917.564,VALID,0,VALID,88.6626,VALID,0.101885,VALID,18.0928,VALID,95,VALID,1.27446,
2006-01-27, 03:18:00,VALID,917.555,VALID,0,VALID,88.6372,VALID,0.152827,VALID,18.1473,VALID,90,VALID,1.16545,
2006-01-27, 03:19:00,VALID,917.549,VALID,0,VALID,88.5469,VALID,0.101885,VALID,18.1695,VALID,89,VALID,0.880632,
2006-01-27, 03:20:00,VALID,917.532,VALID,0,VALID,88.7656,VALID,0.135847,VALID,18.1828,VALID,91,VALID,0.791319,
2006-01-27, 03:21:00,VALID,917.508,VALID,0,VALID,88.4083,VALID,0.152827,VALID,18.1759,VALID,97,VALID,0.988467,
2006-01-27, 03:22:00,VALID,917.495,VALID,0,VALID,88.6207,VALID,0.0849042,VALID,18.1729,VALID,94,VALID,0.87157,
2006-01-27, 03:23:00,VALID,917.48,VALID,0,VALID,88.8534,VALID,0.152827,VALID,18.172,VALID,94,VALID,0.814583,
2006-01-27, 03:24:00,VALID,917.465,VALID,0,VALID,88.9996,VALID,0.135847,VALID,18.1628,VALID,93,VALID,0.928199,
2006-01-27, 03:25:00,VALID,917.442,VALID,0,VALID,89.2628,VALID,0.101885,VALID,18.1598,VALID,95,VALID,0.95149,
2006-01-27, 03:26:00,VALID,917.446,VALID,0,VALID,89.7778,VALID,0.101885,VALID,18.1505,VALID,97,VALID,0.940549,
2006-01-27, 03:27:00,VALID,917.432,VALID,0,VALID,89.7015,VALID,0.118866,VALID,18.0984,VALID,103,VALID,1.25763,
2006-01-27, 03:28:00,VALID,917.422,VALID,0,VALID,90.0029,VALID,0.152827,VALID,18.0624,VALID,103,VALID,0.922447,
2006-01-27, 03:29:00,VALID,917.419,VALID,0,VALID,90.1479,VALID,0.118866,VALID,18.0335,VALID,102,VALID,1.14807,
2006-01-27, 03:30:00,VALID,917.404,VALID,0,VALID,90.448,VALID,0.135847,VALID,18.0014,VALID,107,VALID,1.20234,
2006-01-27, 03:31:00,VALID,917.396,VALID,0,VALID,90.4683,VALID,0.135847,VALID,17.9661,VALID,109,VALID,1.27402,
2006-01-27, 03:32:00,VALID,917.385,VALID,0,VALID,90.5917,VALID,0.135847,VALID,17.9532,VALID,109,VALID,1.20313,
2006-01-27, 03:33:00,VALID,917.383,VALID,0,VALID,90.7493,VALID,0.118866,VALID,17.9432,VALID,102,VALID,1.0754,